Regional Weather Roundup
Issued by NWS

Home | Current Version | Previous Version | Text Only | Print | Product List | Glossary Off
Versions: 1 2 3 4 5 6 7 8 9 10 11 12 13 14 15 16 17 18 19 20 21 22 23 24 25 26 27 28 29 30 31 32 33 34 35 36 37 38 39 40 41 42 43 44 45 46 47 48 49 50

000
ASUS43 KMKX 251621
RWRWI

WISCONSIN REGIONAL WEATHER ROUNDUP
NATIONAL WEATHER SERVICE MILWAUKEE/SULLIVAN WI
1100 AM CDT TUE JUL 25 2017

NOTE: "FAIR" INDICATES FEW OR NO CLOUDS BELOW 12,000 FEET WITH NO
SIGNIFICANT WEATHER AND/OR OBSTRUCTIONS TO VISIBILITY.

WIZ001-002-006>008-014>016-023>028-251700-
NORTHWEST WISCONSIN

CITY           SKY/WX    TMP DP  RH WIND       PRES   REMARKS
SUPERIOR ARPT  NOT AVBL
ASHLAND        MOSUNNY   73  62  68 S14G22    30.05F
HAYWARD        PTSUNNY   70  60  70 S16G23    30.08R
SIREN          PTSUNNY   73  62  70 S12G18    30.03S
CUMBERLAND     PTSUNNY   68  61  77 S12       30.06F
RICE LAKE      MOSUNNY   67  61  80 SE13      30.09S
CHETEK         MOSUNNY   69  63  81 SE15G23   30.09F
LADYSMITH      LGT RAIN  65  58  77 S12       30.13S
EAU CLAIRE     PTSUNNY   66  61  84 SE12      30.09F
MENOMONIE      CLOUDY    68  62  82 E10G16    30.07F
NEW RICHMOND   PTSUNNY   69  63  82 S15       30.04R
OSCEOLA        CLOUDY    70  63  77 S16       30.05R
$$

WIZ003>005-009-010-017-018-251700-
NORTH CENTRAL WISCONSIN

CITY           SKY/WX    TMP DP  RH WIND       PRES   REMARKS
MANITOWISH WTR CLOUDY    65  52  64 S12       30.13F
ARBOR VITAE    PTSUNNY   67  55  66 S7        30.14S
WOODRUFF       PTSUNNY   67  55  66 S7        30.14S
RHINELANDER    CLOUDY    66  54  65 S7        30.17F
EAGLE RIVER    CLOUDY    69  48  48 S6        30.15F
LAND O LAKES   PTSUNNY   69  49  48 S8        30.16S
PHILLIPS       CLOUDY    67  56  69 S9G17     30.13F
TOMAHAWK         N/A     65  55  68 S3        30.17S
MEDFORD        CLOUDY    63  52  68 S12       30.15F
MERRILL        CLOUDY    65  53  65 S7        30.18S
$$

WIZ029-030-035-036-043>047-251700-
CENTRAL WISCONSIN

CITY           SKY/WX    TMP DP  RH WIND       PRES   REMARKS
WAUSAU         CLOUDY    65  52  62 SE7       30.16R
MOSINEE        PTSUNNY   66  55  68 SE7       30.17S
MARSHFIELD     CLOUDY    64  55  72 S3        30.17R
STEVENS POINT  CLOUDY    67  54  63 S13       30.18R
WAUPACA        SUNNY     75  59  58 S9        30.18S
WAUTOMA        MOSUNNY   71  61  70 S10         N/A
WISC RAPIDS    CLOUDY    71  58  63 S7        30.18R
CAMP DOUGLAS   CLOUDY    68  59  73 S9        30.17R
$$

WIZ011>013-019>022-031-037>040-048>050-251700-
NORTHEAST WISCONSIN

CITY           SKY/WX    TMP DP  RH WIND       PRES   REMARKS
ANTIGO         CLOUDY    63  50  63 S7        30.19S
SHAWANO        MOSUNNY   72  56  58 SW6       30.17S
OCONTO         MOSUNNY   72  57  58 S7        30.17S
STURGEON BAY     N/A     73  59  61 SW12      30.18F
GREEN BAY      MOSUNNY   73  63  70 S13       30.19S
MANITOWOC      MOSUNNY   72  58  61 SE12      30.19F
APPLETON       PTSUNNY   72  55  56 SW12      30.18F
CLINTONVILLE   CLOUDY   N/A N/A N/A S9        30.18S
OSHKOSH        MOSUNNY   73  60  63 S14G21    30.19S
$$

WIZ032>034-041-042-053>061-251700-
SOUTHWEST WISCONSIN

CITY           SKY/WX    TMP DP  RH WIND       PRES   REMARKS
LA CROSSE      LGT RAIN  67  63  87 S9        30.15R
SPARTA         LGT RAIN  64  60  90 CALM      30.18R
VIROQUA        CLOUDY    64  63  97 S8        30.17F
BOSCOBEL       CLOUDY    72  61  68 CALM      30.18R
PRAIRIE DU CHI CLOUDY    69  61  75 SE5       30.15F
PLATTEVILLE    MOSUNNY   71  66  83 SE7       30.19S
$$

WIZ056-057-062-063-064-067-068-251700-
SOUTH CENTRAL WISCONSIN

CITY           SKY/WX    TMP DP  RH WIND       PRES   REMARKS
REEDSBURG      CLOUDY    69  62  78 S7        30.18S
BARABOO/DELLS  CLOUDY    72  58  60 SW9       30.20R
LONE ROCK      CLOUDY    71  63  75 S5        30.19R
MINERAL POINT  PTSUNNY   72  63  73 S8        30.20S
MADISON        PTSUNNY   73  61  65 S15       30.19R
MIDDLETON      PTSUNNY   74  62  65 S12       30.20S
WATERTOWN      PTSUNNY   73  63  70 S12       30.20R
MONROE         PTSUNNY   72  61  68 S14       30.20R
JANESVILLE     MOSUNNY   75  61  60 S12       30.20R
$$

WIZ051-052-058>065-066-070>072-251700-
SOUTHEAST WISCONSIN

CITY           SKY/WX    TMP DP  RH WIND       PRES   REMARKS
MILWAUKEE      MOSUNNY   76  60  57 S17       30.19F
WAUKESHA       PTSUNNY   72  57  60 S9        30.20S
MILWAUKEE/TIMM MOSUNNY   75  55  50 S14       30.20F
RACINE         SUNNY     74  61  63 SE14G23   30.22S
KENOSHA        PTSUNNY   73  60  63 S10       30.21S
FOND DU LAC    PTSUNNY   73  58  59 S12G20    30.20R
SHEBOYGAN      SUNNY     74  62  66 S16       30.19F
WEST BEND      PTSUNNY   72  59  64 S7        30.20S
JUNEAU         PTSUNNY   72  60  67 S12       30.22R
$$

LSZ147-162-251700-
LAKE SUPERIOR

STATION/POSITION TIME  TEMP    WIND        PRES    WAVE
                       AIR SEA DIR/SP/G            HT/PER
                 (UTC) (F)     (DEG/KT/KT) (MB)    (FT/S)
W MID LAKE BUOY  1550   56 50  160/  8/  8 1018.0F   1
DEVILS ISLAND    1600   69     180/  8/ 12 1017.2F
SAXON HARBOR     1540   72     200/ 10/ 17 1017.3F
$$

LMZ867-665-643>646-251700-
LAKE MICHIGAN

STATION/POSITION TIME  TEMP    WIND        PRES    WAVE
                       AIR SEA DIR/SP/G            HT/PER
                 (UTC) (F)     (DEG/KT/KT) (MB)    (FT/S)
CHAMBERS ISLAND  1540   71     200/  7/ 11 1021.3S
S GREEN BAY BUOY 1600   69 72  220/ 12/ 14 1021.4
N MID LAKE BUOY  1550   65 67  180/ 10/ 12 1022.7S   1
NORTHPORT PIER   1540   67     140/ 11/ 12 1021.7F
KEWAUNEE LAKESHO 1554   68     170/  8/ 10 1021.3F
SHEBOYGAN LAKESH 1600   66     160/ 11/ 12 1022.1F
PORT WASHINGTON  1530   70     160/  6/  7 1023.4R
ATWATER BUOY     1509   69 69  150/ 10/ 10 1022.4F
MILWAUKEE LAKESH 1600   69     140/ 14/ 16   N/A
S MID LAKE BUOY  1550   70 71  160/ 12/ 14 1023.1R   1/ 3
KENOSHA   LAKESH 1600   71     160/ 14/ 15 1022.4
$$

TC  - TEMPERATURE IN CELSIUS
VSB - VISIBILITY IN STATUTE MILES
WCI - WIND CHILL INDEX
HX  - HEAT INDEX




USA.gov is the U.S. government's official web portal to all federal, state and local government web resources and services.